Home   Weather   Howell   Past weeks

Flag for USA Past Weather in Howell, Michigan, USA — Yesterday and Last 2 Weeks

43 °F


Feels Like: 40 °F
Forecast: 35 / 51 °F
Wind: 5 mph from Northwest

Location: Livingston County Airport

Current Time: Oct 21, 2016 at 9:59:22 PM

Latest Report: Oct 21, 2016 at 9:35 PM

Visibility: 10 mi

Pressure: 30.04 "Hg

Humidity: 71%

Dew Point: 34 °F

Location of HowellLocation

Past Weather in Howell — Graph


Howell Temperature Yesterday

Maximum temperature yesterday: 58 °F (at 12:15 AM)
Minimum temperature yesterday: 49 °F (at 11:14 PM)
Average temperature yesterday: 54 °F

High & Low Weather Summary for the Past Weeks

High80 °F (Oct 7, 2:35 PM)100% (Oct 8, 7:14 AM)30.45 "Hg (Oct 8, 7:14 AM)
Low33 °F (Oct 14, 6:55 AM)42% (Oct 8, 3:34 PM)29.58 "Hg (Oct 18, 4:14 AM)
Average56 °F81%30.09 "Hg
* Reported Oct 6 8:14 PM — Oct 21 8:14 PM, Howell, Weather by CustomWeather, © 2016

Note: Actual official high and low records may vary slightly from our data, if they occured in-between our weather recording intervals... More about our weather records


Howell Weather History for the Previous 24 Hours

Scroll right to see more
Time TempWeatherWind HumidityBarometerVisibility
8:14 PM
Fri, Oct 21
46 °FOvercast.7 mph68%30.05 "Hg10 mi
7:55 PM46 °FOvercast.5 mph74%30.05 "Hg10 mi
7:35 PM46 °FOvercast.5 mph71%30.05 "Hg10 mi
7:14 PM47 °FOvercast.3 mph69%30.05 "Hg10 mi
6:55 PM47 °FOvercast.5 mph68%30.05 "Hg10 mi
6:34 PM47 °FMore clouds than sun.3 mph72%30.05 "Hg10 mi
6:15 PM48 °FMostly cloudy.No wind71%30.05 "Hg10 mi
5:55 PM48 °FOvercast.3 mph70%30.05 "Hg10 mi
5:34 PM48 °FOvercast.3 mph70%30.05 "Hg10 mi
5:15 PM48 °FOvercast.6 mph71%30.05 "Hg10 mi
4:55 PM48 °FMore clouds than sun.7 mph72%30.04 "Hg10 mi
4:34 PM49 °FOvercast.8 mph74%30.04 "Hg10 mi
4:15 PM48 °FMore clouds than sun.6 mph75%30.04 "Hg10 mi
3:54 PM47 °FCloudy.6 mph79%30.04 "Hg10 mi
3:35 PM47 °FDrizzle. Cloudy.6 mph78%30.04 "Hg10 mi
3:15 PM47 °FMore clouds than sun.6 mph85%30.04 "Hg10 mi
2:54 PM47 °FRain. Cloudy.12 mph88%30.04 "Hg7 mi
2:35 PM47 °FRain. Cloudy.5 mph84%30.04 "Hg7 mi
2:14 PM48 °FMore clouds than sun.9 mph87%30.04 "Hg10 mi
1:55 PM47 °FLight rain. More clouds than sun.9 mph89%30.05 "Hg7 mi
1:35 PM47 °FMostly cloudy.6 mph93%30.05 "Hg7 mi
1:14 PM49 °FRain. Cloudy.8 mph82%30.05 "Hg7 mi
12:55 PM47 °FCloudy.9 mph87%30.05 "Hg10 mi
12:34 PM48 °FMostly cloudy.14 mph83%30.06 "Hg7 mi
12:15 PM48 °FOvercast.8 mph80%30.05 "Hg10 mi
11:55 AM48 °FOvercast.8 mph82%30.05 "Hg10 mi
11:34 AM47 °FOvercast.9 mph83%30.05 "Hg10 mi
11:15 AM46 °FOvercast.8 mph83%30.05 "Hg10 mi
10:54 AM46 °FOvercast.9 mph84%30.05 "Hg10 mi
10:34 AM45 °FOvercast.8 mph84%30.05 "Hg10 mi
10:15 AM44 °FOvercast.9 mph84%30.05 "Hg10 mi
9:54 AM44 °FOvercast.7 mph84%30.04 "Hg10 mi
9:35 AM44 °FOvercast.10 mph84%30.04 "Hg10 mi
9:14 AM43 °FOvercast.7 mph84%30.04 "Hg10 mi
8:55 AM43 °FOvercast.9 mph84%30.03 "Hg10 mi
8:34 AM43 °FOvercast.7 mph83%30.03 "Hg10 mi
8:15 AM43 °FOvercast.9 mph82%30.03 "Hg10 mi
7:55 AM42 °FOvercast.8 mph83%30.03 "Hg10 mi
7:34 AM42 °FMostly cloudy.7 mph83%30.03 "Hg10 mi
7:15 AM42 °FMostly cloudy.8 mph83%30.02 "Hg10 mi
6:54 AM43 °FOvercast.8 mph83%30.03 "Hg10 mi
6:35 AM43 °FOvercast.7 mph84%30.03 "Hg10 mi
6:15 AM43 °FOvercast.8 mph84%30.04 "Hg10 mi
5:54 AM43 °FOvercast.7 mph84%30.03 "Hg10 mi
5:35 AM44 °FOvercast.8 mph84%30.03 "Hg10 mi
5:14 AM44 °FOvercast.9 mph83%30.04 "Hg10 mi
4:55 AM45 °FOvercast.10 mph82%30.02 "Hg10 mi
4:35 AM45 °FOvercast.9 mph81%30.01 "Hg10 mi
4:14 AM45 °FOvercast.9 mph81%30.03 "Hg10 mi
3:55 AM45 °FMostly cloudy.8 mph83%30.04 "Hg10 mi
3:34 AM45 °FDrizzle. Overcast.5 mph84%30.05 "Hg10 mi
3:14 AM46 °FLight rain. Mostly cloudy.7 mph83%30.04 "Hg10 mi
2:54 AM46 °FDrizzle. Overcast.9 mph83%30.04 "Hg10 mi
2:35 AM46 °FOvercast.9 mph84%30.04 "Hg10 mi
2:15 AM46 °FOvercast.7 mph84%30.05 "Hg10 mi
1:54 AM47 °FRain. Overcast.7 mph87%30.04 "Hg10 mi
1:35 AM47 °FOvercast.8 mph84%30.05 "Hg10 mi
1:14 AM47 °FOvercast.7 mph86%30.05 "Hg10 mi
12:54 AM48 °FMostly cloudy.7 mph89%30.06 "Hg10 mi
12:35 AM48 °FOvercast.5 mph92%30.06 "Hg10 mi
12:14 AM49 °FMostly cloudy.8 mph93%30.06 "Hg10 mi
11:55 PM
Thu, Oct 20
49 °FDrizzle. Mostly cloudy.5 mph95%30.06 "Hg10 mi
11:34 PM49 °FRain. Mostly cloudy.6 mph96%30.07 "Hg10 mi
11:14 PM49 °FRain. Overcast.3 mph98%30.07 "Hg7 mi
10:55 PM49 °FLight rain. Overcast.No wind98%30.07 "Hg7 mi
10:34 PM49 °FLight rain. Mostly cloudy.3 mph98%30.07 "Hg7 mi
10:15 PM49 °FLight rain. Mostly cloudy.3 mph97%30.07 "Hg7 mi
9:54 PM49 °FLight rain. Mostly cloudy.5 mph97%30.07 "Hg5 mi
9:35 PM50 °FLight rain. Mostly cloudy.3 mph96%30.06 "Hg5 mi
9:15 PM50 °FLight rain. Mostly cloudy.6 mph93%30.06 "Hg10 mi
Weather by CustomWeather, © 2016

See weather overviewHow to use our weather pages